Estación Meteorológica Peña el Pijo (Robertgarden) [ 09/29/20 20:52:27 CEST ]

Fecha Hora Presion(HPa) Temp (°C) Humedad % Rocio (°C) Viento ( m/s) Direccion Lluvia 1Hora(mm) Lluvia 24H(mm) LLuvia Total(mm)
2020-May-18 01:08:50 1013.600 - - - - W     39.88
2020-May-18 02:09:03 1013.500 - - - - W     39.88
2020-May-18 03:09:13 1013.300 - - - - W     39.88
2020-May-18 04:09:00 1012.800 - - - - W     39.88
2020-May-18 05:08:51 1012.700 - - - - W     39.88
2020-May-18 06:08:54 1012.800 - - - - W     39.88
2020-May-18 07:09:45 1013.000 - - - - W     39.88
2020-May-18 08:09:50 1013.200 - - - - W     39.88
2020-May-18 09:09:33 1013.400 - - - - W     39.88
2020-May-18 10:10:27 1013.200 - - - - W     39.88
2020-May-18 11:09:06 1013.200 - - - - W     39.88
2020-May-18 12:09:09 1013.000 - - - - W     39.88
2020-May-18 13:09:06 1012.700 - - - - W     39.88
2020-May-18 14:09:30 1012.400 - - - - W     39.88
2020-May-18 15:09:01 1012.200 - - - - W     39.88
2020-May-18 16:08:49 1011.900 - - - - W     39.88
2020-May-18 17:08:56 1011.500 - - - - W     39.88
2020-May-18 18:09:09 1011.500 - - - - W     39.88
2020-May-18 19:09:24 1011.400 - - - - W     39.88
2020-May-18 20:09:00 1011.500 - - - - W     39.88
2020-May-18 21:09:10 1011.600 - - - - W     39.88
2020-May-18 22:09:17 1012.200 - - - - W     39.88
2020-May-18 23:09:18 1013.000 - - - - W     39.88

Temperatura Máxima:    Temperatura Mínima:
Presión Máxima:1013.600 Hpa    Presión Mínima:1011.400 Hpa


Volver